E3891 Weather Reports


time (UTC)temp
C
wind
direction
speed
KPH
gust
KPH
rain 1hr
cm
rain 24hr
cm
rain mn
cm
humidity
%
barometer
mb
20260906095559 20 19 0.0 4.8 0.00 0.43 0.51 96 1013.4
20260906095138 -17 48 0.0 11.3 0.00 0.46 0.51 1013.2
20260906094530 -17 107 0.0 9.7 0.00 0.46 0.51 1013.0
20260906094124 20 31 0.0 11.3 0.00 0.46 0.51 95 1013.2
20260906093101 -17 22 4.8 9.7 0.00 0.46 0.51 1013.3
20260906092601 0 109 0.0 12.9 0.00 0.46 0.51 100 1012.9
20260906092431 -17 61 4.8 11.3 0.00 8.38 0.51 1013.3
20260906092100 0 23 3.2 16.1 0.00 0.46 0.51 100 1012.8
20260906091600 21 45 1.6 16.1 0.00 0.46 0.51 94 1012.8
20260906091325 0 9 1.6 14.5 0.00 0.46 0.51 94 1012.8
20260906091059 21 44 3.2 17.7 0.00 0.46 0.51 94 1012.8
20260906090556 21 124 0.0 17.7 0.00 0.46 0.51 94 1012.9
20260906085636 0 98 1.6 14.5 0.00 0.46 0.51 94 1012.7
20260906084551 -17 43 0.0 14.5 0.00 0.46 0.51 1012.7
20260906084231 21 88 0.0 9.7 0.00 0.46 0.51 96 1012.9
20260906084045 -17 95 0.0 14.5 0.00 0.46 0.51 1012.7
20260906083551 -17 123 3.2 12.9 0.00 0.46 0.51 1012.8
20260906083132 -17 100 3.2 16.1 0.00 0.46 0.51 1012.4
20260906082551 -17 103 6.4 16.1 0.00 0.46 0.51 1012.8
20260906082439 0 14 1.6 12.9 0.00 0.46 0.51 94 1013.2
20260906082343 0 151 0.0 11.3 0.00 0.46 0.51 94 1013.2
20260906082053 -17 92 6.4 17.7 0.00 0.46 0.51 1012.9
20260906081605 -17 109 1.6 17.7 0.00 0.46 0.51 1012.7
20260906081148 0 31 6.4 16.1 0.00 0.46 0.51 96 1013.0
20260906080701 0 140 4.8 16.1 0.00 0.46 0.51 96 1013.0
20260906080219 0 16 0.0 9.7 0.00 0.46 0.51 96 1013.0
20260906075205 21 69 4.8 12.9 0.00 0.46 0.51 96 1013.1
20260906074731 -17 92 0.0 12.9 0.00 0.46 0.51 1013.0
20260906074308 0 108 0.0 12.9 0.00 0.46 0.51 95 1012.9
20260906073308 0 359 0.0 12.9 0.00 0.46 0.51 94 1013.0
20260906071615 -17 67 1.6 11.3 0.00 8.38 0.51 1013.2
20260906070604 22 96 8.0 11.3 0.00 8.38 0.25 94 1013.5
20260906070107 22 46 3.2 9.7 0.00 8.38 0.25 94 1013.4
20260906065600 22 53 4.8 14.5 0.00 8.38 0.25 93 1013.3
20260906065102 22 49 3.2 14.5 0.00 8.38 0.25 93 1013.3
20260906064551 -17 57 6.4 14.5 0.00 8.38 0.25 1013.4
20260906064050 -17 93 1.6 9.7 0.00 8.38 0.25 1013.2
20260906063556 22 2 0.0 9.7 0.00 8.38 0.25 93 1013.5
20260906063054 22 141 0.0 9.7 0.00 8.38 0.25 93 1013.5
20260906062611 0 114 0.0 11.3 0.00 8.38 0.25 92 1013.3
20260906062056 0 55 0.0 11.3 0.00 8.38 0.00 92 1013.3
20260906061547 -17 97 0.0 9.7 0.00 8.38 0.00 1013.3
20260906061054 0 75 4.8 9.7 0.00 8.38 0.00 92 1013.2
20260906060554 0 62 4.8 9.7 0.00 8.38 0.00 92 1013.3
20260906060049 -17 52 1.6 9.7 0.00 8.38 0.00 1013.2
20260906055936 -17 356 0.0 0.0 0.05 16.41 6.71 1013.0
20260906055557 0 36 4.8 9.7 0.00 8.38 0.00 100 1013.2
20260906055054 0 43 0.0 1.6 0.00 8.38 0.00 100 1013.2
20260906054556 -17 47 0.0 4.8 0.00 8.38 0.00 1013.0
20260906054053 0 10 0.0 9.7 0.00 8.38 0.00 100 1012.9
20260906053555 0 44 4.8 9.7 0.00 8.38 0.00 100 1013.1
20260906053528 0 54 0.0 4.8 0.00 8.38 0.00 100 1013.1
20260906053119 0 72 4.8 6.4 0.00 8.38 0.00 100 1013.2
20260906052044 23 22 0.0 9.7 0.05 8.38 0.00 92 1013.1
20260906051539 23 25 3.2 11.3 0.05 8.38 0.00 92 1012.9
20260906051418 0 4 0.0 9.7 0.05 16.41 0.00 92 1012.7
20260906051116 23 34 1.6 11.3 0.05 8.38 0.00 92 1012.9
20260906050402 -17 11 0.0 11.3 0.05 16.41 6.71 1013.0
20260906050038 0 75 3.2 11.3 0.05 16.41 6.71 92 1012.9
20260906045039 0 55 0.0 6.4 0.05 16.41 6.71 92 1012.9
20260906044540 0 11 0.0 6.4 0.05 16.41 6.71 92 1013.0
20260906044110 -17 5 0.0 0.0 0.05 16.41 6.71 1012.8
20260906043530 -17 51 0.0 0.0 0.05 16.41 6.71 1013.1
20260906043103 -17 349 0.0 0.0 0.05 16.41 6.71 1013.2
20260906042040 0 11 0.0 0.0 0.00 16.36 6.45 100 1012.7
20260906041540 0 30 0.0 0.0 0.00 16.36 6.45 100 1012.6
20260906041104 23 35 0.0 0.0 0.00 16.36 6.45 91 1012.8
20260906040947 -17 356 0.0 0.0 0.00 16.36 6.45 1012.6
20260906040553 -17 11 0.0 0.0 0.00 16.36 6.45 1012.6
20260906035529 -17 39 0.0 0.0 0.00 16.41 6.45 1012.7
20260906035036 -17 12 0.0 9.7 0.00 16.41 6.45 1012.8
20260906034953 -17 30 1.6 9.7 0.00 16.41 6.45 1012.6
20260906034548 23 59 0.0 11.3 0.00 16.41 6.45 91 1012.6
20260906034112 23 46 0.0 9.7 0.00 16.41 6.45 91 1012.6
20260906033031 -17 41 4.8 9.7 0.00 16.41 6.45 1012.5
20260906032537 23 33 6.4 11.3 0.00 16.41 6.45 91 1012.4
20260906032041 23 35 3.2 11.3 0.00 16.41 6.45 91 1012.6
20260906031534 -17 74 3.2 11.3 0.00 16.48 6.45 1012.5
20260906031033 -17 102 0.0 11.3 0.00 16.48 6.45 1012.3
20260906030732 -17 70 4.8 9.7 0.00 16.48 6.45 1012.3
20260906030531 -17 59 6.4 11.3 0.00 16.48 6.45 1012.3
20260906030101 -17 48 3.2 11.3 0.00 16.48 6.45 1012.4
20260906025027 -17 47 4.8 9.7 0.00 16.48 6.45 1012.4
20260906024528 -17 79 6.4 11.3 0.00 16.48 6.45 1012.0
20260906024029 -17 11 0.0 12.9 0.00 16.48 6.45 1012.2
20260906023530 -17 61 9.7 14.5 0.00 16.54 6.45 1012.0
20260906023025 -17 56 3.2 14.5 0.00 16.54 6.45 1012.0
20260906022515 -17 60 0.0 9.7 0.00 16.54 6.45 1011.8
20260906022411 25 82 0.0 11.3 0.05 16.54 6.45 89 1010.8
20260906022002 -17 104 0.0 9.7 0.00 16.54 6.45 1012.1
20260906021456 -17 60 0.0 9.7 0.00 16.54 6.45 1011.8
20260906021200 0 111 0.0 9.7 0.05 16.54 6.45 90 1011.5
20260906020954 -17 13 0.0 3.2 0.05 16.54 6.45 1011.6
20260906020533 0 74 0.0 6.4 0.05 16.54 6.45 90 1011.3
20260906015501 0 88 4.8 9.7 0.05 16.54 6.45 90 1011.1
20260906015314 -17 38 1.6 6.4 0.05 16.54 6.15 1010.7
20260906015003 -17 21 0.0 9.7 0.05 16.54 6.45 1011.3
20260906014509 -17 2 1.6 9.7 0.05 16.54 6.45 1011.2
20260906014049 -17 30 0.0 14.5 0.05 16.54 6.45 1011.3
20260906013739 25 63 6.4 11.3 0.00 16.54 6.15 88 1010.6
20260906013451 25 81 4.8 14.5 0.05 16.54 6.45 89 1011.1
20260906013403 25 357 3.2 6.4 0.00 16.54 6.15 87 1010.6
20260906013317 25 46 0.0 4.8 0.00 16.54 6.15 87 1010.7
20260906013212 -17 8 0.0 4.8 0.00 16.54 6.15 1010.8
20260906013004 25 84 0.0 9.7 0.05 16.54 6.45 89 1011.2
20260906012534 25 66 3.2 11.3 0.05 16.54 6.45 89 1010.8
20260906011024 25 60 0.0 9.7 0.00 16.54 6.15 88 1010.7
20260906010557 25 34 8.0 9.7 0.00 16.54 6.15 88 1011.1
20260906010234 25 61 0.0 6.4 0.00 16.54 6.15 88 1011.1
20260906003947 -17 49 0.0 6.4 0.05 16.54 6.15 1010.8
20260906002931 -17 7 1.6 6.4 0.05 16.54 6.15 1010.6
20260906002427 0 43 0.0 9.7 0.05 16.54 6.15 100 1010.5
20260906001936 0 65 3.2 9.7 0.05 16.61 6.15 100 1010.6
20260906001430 26 60 0.0 11.3 0.13 16.61 6.15 85 1010.6
20260906000936 26 27 0.0 12.9 0.13 16.61 6.15 85 1010.6
20260906000422 -17 48 8.0 12.9 0.13 16.61 6.15 1010.6
20260905235931 -17 82 4.8 16.1 0.13 16.61 6.15 1010.6
20260905235429 27 61 0.0 17.7 0.13 16.61 6.15 100 1010.4
20260905234938 27 6 1.6 17.7 0.13 16.61 6.15 100 1010.5
20260905234421 -17 84 8.0 16.1 0.13 16.61 6.15 1010.3
20260905233933 27 55 1.6 16.1 0.05 16.54 5.84 82 1010.4
20260905233420 27 60 1.6 16.1 0.05 16.54 5.84 82 1010.3
20260905232904 27 78 11.3 17.7 0.05 16.54 5.84 82 1010.3
20260905232402 28 23 0.0 20.9 0.05 16.54 5.84 81 1010.3
20260905231913 28 50 3.2 20.9 0.05 16.54 5.66 81 1010.3
20260905231753 29 325 0.0 12.9 0.13 16.48 5.56 79 1010.0
20260905231650 30 81 0.0 16.1 0.13 16.48 5.56 100 1010.1
20260905231408 30 93 1.6 16.1 0.05 16.48 5.56 79 1010.2
20260905230931 30 77 0.0 12.9 0.05 16.48 5.56 79 1010.3
20260905230456 30 358 0.0 11.3 0.13 16.48 5.56 79 1010.2
20260905225438 29 3 0.0 14.5 0.13 16.48 5.56 79 1010.0
20260905224753 0 35 0.0 14.5 0.13 16.48 5.56 79 1010.0
20260905224411 0 41 0.0 17.7 0.13 16.48 5.56 79 1010.1
20260905224338 31 68 4.8 17.7 0.05 16.41 5.26 77 1009.8
20260905224156 31 41 0.0 12.9 0.00 16.36 4.95 100 1009.8
20260905223921 0 62 6.4 17.7 0.13 16.48 5.56 78 1010.0
20260905223444 0 47 1.6 14.5 0.13 16.48 5.56 78 1010.1
20260905222750 31 0 1.6 14.5 0.00 16.36 4.95 75 1009.7
20260905222642 0 173 0.0 14.5 0.00 16.36 4.95 73 1010.0
20260905222409 -17 66 0.0 12.9 0.13 16.48 5.56 1009.8
20260905221955 31 48 1.6 14.5 0.13 16.48 5.56 77 1009.8
20260905220959 31 45 4.8 17.7 0.05 16.41 5.26 76 1009.7
20260905215435 0 21 4.8 14.5 0.00 16.36 4.95 74 1009.8
20260905214404 0 57 1.6 12.9 0.00 16.36 4.95 71 1009.7
20260905214250 33 13 0.0 4.8 0.00 16.36 4.95 71 1009.8
20260905213910 0 16 0.0 14.5 0.00 16.36 4.95 71 1009.9
20260905213419 32 359 0.0 14.5 0.00 16.36 4.95 100 1010.0
20260905212954 0 344 0.0 12.9 0.00 16.36 4.95 70 1009.9
20260905212406 0 350 0.0 12.9 0.00 16.36 4.95 70 1010.1
20260905211943 0 341 0.0 12.9 0.00 16.36 4.95 71 1010.0
20260905210913 32 350 0.0 4.8 0.00 16.36 4.95 100 1009.9
20260905210408 32 50 0.0 11.3 0.00 16.36 4.95 100 1010.1
20260905205912 0 9 1.6 11.3 0.00 16.36 4.95 72 1010.2
20260905205407 0 61 0.0 6.4 0.00 16.36 4.95 70 1010.0
20260905205048 33 356 0.0 9.7 0.00 16.36 4.95 71 1010.3
20260905204907 32 93 0.0 9.7 0.00 16.36 4.95 71 1009.8
20260905204430 0 350 0.0 12.9 0.00 16.36 4.95 69 1009.9
20260905204002 0 336 0.0 12.9 0.00 16.36 4.95 70 1010.0
20260905202914 33 34 0.0 6.4 0.00 16.36 4.95 70 1010.2
20260905202406 0 348 0.0 4.8 0.00 16.36 4.95 71 1010.2
20260905201912 0 347 0.0 11.3 0.00 16.36 4.95 72 1010.2
20260905201408 0 21 0.0 11.3 0.00 16.36 4.95 71 1010.2
20260905201254 0 23 1.6 9.7 0.00 16.36 4.95 73 1010.2
20260905201152 0 8 0.0 11.3 0.00 16.36 4.95 74 1010.2
20260905200926 0 6 0.0 12.9 0.00 16.36 4.95 69 1010.0
20260905200449 0 66 0.0 12.9 0.00 16.36 4.95 72 1010.3
20260905195434 32 281 0.0 3.2 0.00 16.36 4.95 74 1010.1
20260905194408 0 35 0.0 11.3 0.00 16.36 4.95 72 1010.3
20260905193914 0 354 0.0 6.4 0.00 16.36 4.95 73 1010.5
20260905193410 33 315 0.0 1.6 0.00 16.36 4.95 100 1010.6
20260905192912 33 4 1.6 4.8 0.00 16.36 4.95 100 1010.7
20260905192428 0 349 0.0 4.8 0.00 16.36 4.95 72 1010.8
20260905192227 -17 350 0.0 3.2 0.00 16.36 4.70 1010.8
20260905192213 0 15 0.0 3.2 0.00 16.36 4.70 100 1010.6
20260905192126 0 31 0.0 3.2 0.00 16.36 4.70 100 1010.9
20260905191933 0 35 0.0 4.8 0.00 16.36 4.95 71 1010.8
20260905191457 32 339 0.0 9.7 0.00 16.36 4.80 100 1010.8
20260905191031 0 307 0.0 9.7 0.00 16.36 4.70 70 1010.7
20260905190600 -17 348 0.0 0.0 0.00 16.36 4.70 1010.9
20260905184415 0 359 0.0 1.6 0.00 16.36 4.70 71 1011.2
20260905183923 0 352 0.0 0.0 0.00 16.36 4.70 71 1011.1
20260905183434 33 10 0.0 3.2 0.00 16.36 4.70 69 1011.3
20260905182918 33 54 0.0 3.2 0.00 16.36 4.70 71 1011.1
20260905182654 33 355 0.0 1.6 0.00 16.36 4.45 72 1010.8
20260905182405 33 38 0.0 3.2 0.00 16.36 4.70 68 1011.1
20260905181921 33 117 0.0 3.2 0.00 16.36 4.70 100 1010.9
20260905180910 32 11 0.0 1.6 0.00 16.36 4.45 72 1011.3
20260905180402 -17 35 0.0 3.2 0.00 16.36 4.45 1010.9
20260905175915 0 59 0.0 4.8 0.00 16.36 4.45 75 1011.1
20260905175407 0 9 0.0 4.8 0.00 16.36 4.19 75 1010.9
20260905174912 0 3 0.0 4.8 0.00 16.36 4.19 74 1011.1
20260905174408 0 15 0.0 4.8 0.00 16.36 4.19 74 1010.8
20260905173904 0 45 0.0 11.3 0.00 16.36 3.96 76 1010.7
20260905173404 0 110 6.4 11.3 0.00 16.36 3.96 77 1010.8
20260905172907 0 59 0.0 3.2 0.00 16.36 3.96 74 1010.8
20260905172359 0 115 0.0 9.7 0.00 16.36 3.96 74 1011.1
20260905172157 0 42 0.0 9.7 0.00 16.36 3.96 75 1011.5
20260905171903 0 356 0.0 9.7 0.00 16.36 3.96 74 1011.3
20260905171556 0 48 3.2 6.4 0.00 16.36 3.96 73 1011.5
20260905171354 0 344 0.0 6.4 0.00 16.36 3.96 74 1010.9
20260905170930 0 7 0.0 6.4 0.00 16.36 3.96 73 1011.2
20260905165927 0 357 0.0 6.4 0.00 16.36 3.96 74 1011.4
20260905165344 0 0 0.0 6.4 0.00 16.36 3.96 100 1011.4
20260905164400 31 29 0.0 9.7 0.00 16.36 3.96 75 1011.4
20260905163857 31 8 0.0 12.9 0.00 16.36 3.96 74 1011.4
20260905163402 31 341 0.0 12.9 0.00 16.36 3.96 74 1011.6
20260905162858 0 357 0.0 9.7 0.00 16.36 3.96 100 1011.4
20260905162400 0 22 3.2 9.7 0.00 16.36 3.96 100 1011.4
20260905161901 0 357 0.0 9.7 0.00 16.36 3.96 100 1011.4
20260905161401 0 350 0.0 9.7 0.00 16.36 3.96 100 1011.6
20260905160901 31 43 0.0 1.6 0.00 16.36 3.96 77 1011.4
20260905160412 31 355 0.0 6.4 0.00 16.36 3.96 78 1011.4
20260905160311 30 91 0.0 4.8 0.00 16.36 3.96 79 1011.1
20260905155934 31 12 0.0 6.4 0.00 16.36 3.96 100 1011.4
20260905154903 30 29 0.0 4.8 0.00 16.36 3.96 79
20260905154339 -25 351 0.0 6.4 0.00 16.36 3.96 79 1011.3
20260905153847 30 22 3.2 11.3 0.00 16.36 3.96 79 1011.3
20260905153341 -25 19 0.0 12.9 0.00 16.36 3.96 80
20260905152839 30 45 1.6 12.9 0.00 16.36 3.96 80
20260905152341 30 82 1.6 11.3 0.00 16.36 3.96 80 1010.9
20260905151835 30 16 0.0 9.7 0.00 16.36 3.96 80 1010.9
20260905151608 29 355 0.0 4.8 0.00 16.36 3.96 84 1011.1
20260905151350 0 309 0.0 11.3 0.00 16.36 3.96 80 1011.1
20260905151243 29 35 0.0 4.8 0.00 16.36 3.96 83 1010.8
20260905150919 29 333 0.0 12.9 0.00 16.36 3.96 82 1010.8
20260905150352 29 5 6.4 12.9 0.00 16.36 3.96 81 1010.9
20260905145931 30 356 0.0 6.4 0.00 16.36 3.96 81 1010.8
20260905144348 29 31 0.0 6.4 0.00 16.36 3.96 83 1010.7
20260905143852 29 4 1.6 6.4 0.00 16.36 3.96 84 1010.8
20260905143346 29 12 0.0 1.6 0.00 16.36 3.96 84 1010.8
20260905142900 29 7 0.0 0.0 0.00 16.36 3.96 84 1010.7
20260905142347 28 357 1.6 1.6 0.00 16.36 3.96 85 1010.5
20260905141846 28 1 0.0 1.6 0.00 16.36 3.96 87 1010.6
20260905141325 0 347 0.0 0.0 0.00 16.36 3.96 88 1010.6
20260905140835 27 1 0.0 280.0 0.00 16.36 3.96 89 1010.5
20260905140708 24 349 1.6 0.0 0.00 16.36 3.66 97 1009.6
20260905140329 27 2 0.0 280.0 0.00 16.36 3.96 89 1010.6
20260905135845 27 3 0.0 0.0 0.00 16.36 3.96 89 1010.3
20260905135326 27 6 0.0 0.0 0.00 16.36 3.96 89 1010.3
20260905135211 26 2 0.0 0.0 0.00 16.36 3.96 89 1010.4
20260905135150 26 3 0.0 0.0 0.00 16.36 3.96 91 1010.3
20260905134857 27 5 0.0 0.0 0.00 16.36 3.96 89 1010.5
20260905134353 27 330 0.0 0.0 0.00 16.36 3.96 88 1010.2
20260905133925 27 2 0.0 0.0 0.00 16.36 3.96 88 1010.3
20260905133256 0 18 0.0 0.0 0.00 16.36 3.66 96 1009.8
20260905133241 24 1 1.6 0.0 0.00 16.36 3.66 97 1009.8
20260905132911 26 2 0.0 0.0 0.00 16.36 3.96 90 1010.1
20260905131917 25 2 0.0 9.7 0.00 16.36 3.96 93 1010.0
20260905131444 0 351 0.0 9.7 0.00 16.36 3.66 93 1009.9
20260905130858 25 0 0.0 6.4 0.00 16.36 3.66 94 1009.8
20260905130800 24 353 3.2 0.0 0.00 16.36 3.66 97 1009.6
20260905130423 25 42 0.0 3.2 0.00 16.36 3.66 95 1010.0
20260905125945 25 331 0.0 4.8 0.00 16.36 3.66 95 1009.8
20260905125521 24 45 0.0 4.8 0.00 16.36 3.66 95 1010.0
20260905122815 24 359 1.6 1.6 0.00 16.36 3.66 98 1009.6
20260905122658 23 7 0.0 3.2 0.05 16.36 3.66 98 1009.0
20260905122313 0 359 0.0 1.6 0.05 16.36 3.66 98 1009.6
20260905121815 23 358 0.0 3.2 0.05 16.36 3.66 98 1009.5
20260905121318 23 357 0.0 3.2 0.05 16.36 3.66 98 1009.4
20260905120831 0 353 0.0 1.6 0.05 16.36 3.66 98 1009.5
20260905120304 0 342 0.0 1.6 0.05 16.36 3.66 98 1009.6
20260905115832 23 355 0.0 1.6 0.05 16.36 3.66 98 1009.4
20260905115238 23 9 0.0 0.0 0.00 16.31 3.35 98 1009.1
20260905114808 23 6 0.0 3.2 0.05 16.36 3.66 98 1009.2
20260905114306 23 0 0.0 0.0 0.05 16.36 3.66 98 1009.1
20260905114052 23 22 0.0 0.0 0.00 16.31 3.35 98 1009.1
20260905113817 23 352 0.0 0.0 0.05 16.36 3.66 98 1009.3
20260905113336 23 351 0.0 0.0 0.05 16.36 3.66 98 1009.3
20260905112901 23 6 0.0 0.0 0.05 16.36 3.66 98 1009.2
20260905112323 23 3 0.0 0.0 0.00 16.31 3.35 98 1009.2
20260905111857 23 10 0.0 0.0 0.00 16.31 3.35 98 1009.3
20260905111429 23 12 0.0 0.0 0.00 16.31 3.35 98 1009.0
20260905105805 23 13 0.0 0.0 0.00 16.31 3.35 98 1008.8
20260905105307 23 10 0.0 0.0 0.05 16.31 3.35 97 1009.0
20260905105154 23 0 0.0 1.6 0.05 16.36 3.35 97 1008.8
20260905105058 23 352 0.0 0.0 0.05 16.36 3.35 97 1008.9
20260905105043 23 353 0.0 0.0 0.05 16.36 3.12 97 1008.8
20260905104805 23 23 0.0 0.0 0.05 16.36 3.35 97 1008.8
20260905104335 23 15 0.0 0.0 0.05 16.36 3.35 97 1008.9
20260905103913 0 18 0.0 1.6 0.05 16.36 3.35 97 1008.9
20260905101805 23 353 0.0 0.0 0.05 16.36 2.87 97 1008.9
20260905101255 0 8 0.0 0.0 0.05 16.36 2.44 97 1008.9
20260905100757 23 4 0.0 0.0 0.05 16.36 1.98 97 1008.8
20260905100303 23 16 0.0 0.0 0.05 16.36 0.84 97 1008.9
20260905095800 23 48 0.0 0.0 0.05 16.36 0.28 96 1008.9